Terug naar catalogus

DMSP 5D-2 F13 DEB

ActiefSSO
NORAD 40396·DEBRIS·🇺🇸 United States

Gelanceerd Mar 24, 1995 vanaf Vandenberg Space Force Base

Loading…

Volgende Passages (komende 24 uur)

TLE

VersSource: Space-Track

Epoch: Sep 14, 2026, 12:04 UTC

1 40396U 95015H   26257.50337718  .00000071  00000-0  54069-4 0  9994
2 40396  98.7346 270.0587 0016045 129.3658 230.8942 14.19625837598264

Volg DMSP 5D-2 F13 DEB in realtime met AllMySat

Download on the App Store